CCA965 ZBAA-EDDF

Flight info

Callsign CCA965
Flight time N/A
Altitude 32100
Route IDKEX2G IDKEX B339 ASILA A575 INTIK Y618 AMUTA/K0883F340 R229 KESUM R372 ADONI B800 KUMOD N869 UNISO/K0893F360 L870 RANVA/N0464F360 L870 RESMO DCT TODNA DCT DEREX DCT KOLJA DCT GORPI Z80 TILAV L87 KETAP DCT PENEK DCT POVEL DCT RIMET/N0446F310 T157 KOKEB/N0391F230 T157 KERAX KERAX5D
Aircraft B77W/H-SDE1E2E3FGHIJ2J3J4J5M1RWXY/LB1D1

Departure

Time 2026-05-01 14:55
Airport Beijing Capital International Airport (ZBAA)

Arrival

Time N/A
Airport Frankfurt Main Airport (EDDF)
Time Latitude Longitude Altitude Speed Heading
2026-05-01 14:14 40.07005 116.60522 130 ft 0 kts 83°
2026-05-01 14:36 40.07005 116.60517 129 ft 2 kts 83°
2026-05-01 14:37 40.07003 116.60498 129 ft 2 kts 83°
2026-05-01 14:37 40.07001 116.60478 129 ft 2 kts 84°
2026-05-01 14:37 40.07000 116.60459 129 ft 2 kts 83°
2026-05-01 14:37 40.06998 116.60439 129 ft 2 kts 83°
2026-05-01 14:38 40.06998 116.60420 129 ft 2 kts 114°
2026-05-01 14:38 40.07007 116.60405 129 ft 2 kts 145°
2026-05-01 14:38 40.07019 116.60397 129 ft 0 kts 172°
2026-05-01 14:38 40.07025 116.60396 129 ft 0 kts 174°
2026-05-01 14:40 40.07024 116.60396 129 ft 0 kts 174°
2026-05-01 14:40 40.06995 116.60400 129 ft 9 kts 174°
2026-05-01 14:41 40.06884 116.60419 129 ft 20 kts 173°
2026-05-01 14:41 40.06749 116.60441 129 ft 18 kts 173°
2026-05-01 14:41 40.06633 116.60459 129 ft 15 kts 173°
2026-05-01 14:41 40.06544 116.60473 129 ft 8 kts 173°
2026-05-01 14:42 40.06491 116.60482 129 ft 7 kts 173°
2026-05-01 14:42 40.06442 116.60490 129 ft 8 kts 173°
2026-05-01 14:42 40.06377 116.60501 129 ft 11 kts 173°
2026-05-01 14:42 40.06289 116.60485 129 ft 14 kts 211°
2026-05-01 14:43 40.06270 116.60364 129 ft 16 kts 268°
2026-05-01 14:43 40.06269 116.60345 129 ft 0 kts 267°
2026-05-01 14:43 40.06266 116.60305 129 ft 8 kts 266°
2026-05-01 14:43 40.06310 116.60245 129 ft 13 kts 347°
2026-05-01 14:44 40.06429 116.60224 129 ft 20 kts 353°
2026-05-01 14:44 40.06701 116.60181 129 ft 12 kts 354°
2026-05-01 14:44 40.06758 116.60131 129 ft 9 kts 281°
2026-05-01 14:45 40.06729 116.60072 129 ft 7 kts 194°
2026-05-01 14:45 40.06622 116.60081 129 ft 8 kts 173°
2026-05-01 14:45 40.06565 116.60089 129 ft 8 kts 174°
2026-05-01 14:46 40.06503 116.60098 129 ft 9 kts 174°
2026-05-01 14:46 40.06358 116.60120 129 ft 11 kts 173°
2026-05-01 14:46 40.06276 116.60133 129 ft 12 kts 173°
2026-05-01 14:47 40.06187 116.60147 129 ft 13 kts 173°
2026-05-01 14:47 40.06091 116.60163 129 ft 14 kts 173°
2026-05-01 14:47 40.05991 116.60180 129 ft 14 kts 173°
2026-05-01 14:48 40.05848 116.60202 129 ft 7 kts 174°
2026-05-01 14:48 40.05810 116.60207 129 ft 2 kts 174°
2026-05-01 14:48 40.05765 116.60214 129 ft 9 kts 174°
2026-05-01 14:49 40.05687 116.60225 129 ft 0 kts 174°
2026-05-01 14:52 40.05660 116.60229 129 ft 6 kts 173°
2026-05-01 14:52 40.05560 116.60245 129 ft 0 kts 192°
2026-05-01 14:53 40.05551 116.60236 129 ft 0 kts 243°
2026-05-01 14:53 40.05550 116.60235 129 ft 1 kts 243°
2026-05-01 14:53 40.05536 116.60162 129 ft 14 kts 264°
2026-05-01 14:53 40.05561 116.60037 129 ft 11 kts 306°
2026-05-01 14:54 40.05623 116.59998 129 ft 9 kts 354°
2026-05-01 14:54 40.05790 116.59972 129 ft 54 kts 353°
2026-05-01 14:54 40.06412 116.59877 130 ft 124 kts 354°
2026-05-01 14:54 40.07485 116.59704 147 ft 182 kts 353°
2026-05-01 14:55 40.08784 116.59505 702 ft 193 kts 354°
2026-05-01 14:55 40.10135 116.59290 1396 ft 201 kts 356°
2026-05-01 14:55 40.11580 116.59066 1777 ft 214 kts 356°
2026-05-01 14:55 40.13134 116.58826 2071 ft 232 kts 356°
2026-05-01 14:56 40.14738 116.58573 2600 ft 237 kts 356°
2026-05-01 14:56 40.16404 116.58310 3158 ft 242 kts 355°
2026-05-01 14:56 40.18160 116.58033 3584 ft 258 kts 354°
2026-05-01 14:56 40.19986 116.57745 4022 ft 272 kts 354°
2026-05-01 14:57 40.21920 116.57439 4693 ft 279 kts 353°
2026-05-01 14:57 40.25826 116.56818 6082 ft 287 kts 351°
2026-05-01 14:57 40.27850 116.56477 6817 ft 290 kts 351°
2026-05-01 14:58 40.29880 116.56131 7539 ft 291 kts 351°
2026-05-01 14:58 40.31891 116.55791 8267 ft 293 kts 351°
2026-05-01 14:58 40.33946 116.55444 8812 ft 297 kts 351°
2026-05-01 14:58 40.36022 116.55093 8897 ft 296 kts 350°
2026-05-01 14:59 40.38115 116.54740 8917 ft 297 kts 351°
2026-05-01 14:59 40.40254 116.54377 9098 ft 318 kts 351°
2026-05-01 14:59 40.42528 116.54092 9453 ft 336 kts 358°
2026-05-01 14:59 40.44921 116.54196 9869 ft 351 kts
2026-05-01 15:00 40.50079 116.54604 10857 ft 377 kts
2026-05-01 15:00 40.52726 116.54805 11581 ft 381 kts
2026-05-01 15:00 40.55408 116.55006 12317 ft 384 kts
2026-05-01 15:01 40.58099 116.55207 13056 ft 387 kts
2026-05-01 15:01 40.60802 116.55408 13628 ft 393 kts
2026-05-01 15:01 40.63572 116.55614 13737 ft 393 kts
2026-05-01 15:01 40.66317 116.55817 13742 ft 391 kts
2026-05-01 15:02 40.69036 116.56019 13739 ft 391 kts
2026-05-01 15:02 40.70882 116.56156 13737 ft 390 kts
2026-05-01 15:02 40.74575 116.56428 14061 ft 401 kts
2026-05-01 15:02 40.77372 116.56617 15005 ft 397 kts 359°
2026-05-01 15:03 40.80141 116.56465 15884 ft 395 kts 354°
2026-05-01 15:03 40.82908 116.56207 16589 ft 398 kts 353°
2026-05-01 15:03 40.85682 116.55944 17287 ft 400 kts 353°
2026-05-01 15:03 40.88509 116.55678 17961 ft 404 kts 353°
2026-05-01 15:04 40.91387 116.55408 18625 ft 407 kts 353°
2026-05-01 15:04 40.94267 116.55138 19225 ft 411 kts 353°
2026-05-01 15:04 40.97145 116.54868 19827 ft 414 kts 352°
2026-05-01 15:04 41.00118 116.54590 20398 ft 419 kts 352°
2026-05-01 15:05 41.03095 116.54311 20979 ft 422 kts 352°
2026-05-01 15:05 41.06077 116.54032 21536 ft 426 kts 352°
2026-05-01 15:05 41.09054 116.53754 22084 ft 429 kts 352°
2026-05-01 15:05 41.12044 116.53474 22646 ft 431 kts 351°
2026-05-01 15:06 41.15139 116.53183 23146 ft 435 kts 351°
2026-05-01 15:06 41.18177 116.52898 23684 ft 438 kts 351°
2026-05-01 15:06 41.21261 116.52524 24184 ft 437 kts 346°
2026-05-01 15:06 41.24208 116.51608 24585 ft 435 kts 336°
2026-05-01 15:07 41.27052 116.50048 24993 ft 432 kts 327°
2026-05-01 15:07 41.29659 116.48074 25504 ft 431 kts 324°
2026-05-01 15:07 41.32275 116.46007 26128 ft 430 kts 323°
2026-05-01 15:07 41.34895 116.43931 26691 ft 430 kts 323°
2026-05-01 15:08 41.37510 116.41858 27124 ft 433 kts 323°
2026-05-01 15:08 41.40163 116.39753 27501 ft 437 kts 323°
2026-05-01 15:08 41.42775 116.37682 28000 ft 437 kts 323°
2026-05-01 15:08 41.45434 116.35572 28497 ft 437 kts 322°
2026-05-01 15:09 41.48065 116.33482 28937 ft 439 kts 322°
2026-05-01 15:09 41.50705 116.31384 29457 ft 439 kts 321°
2026-05-01 15:09 41.53327 116.29301 30056 ft 436 kts 321°
2026-05-01 15:09 41.55953 116.27213 30718 ft 433 kts 321°
2026-05-01 15:10 41.58571 116.25128 31295 ft 430 kts 321°
2026-05-01 15:10 41.63705 116.21030 32088 ft 429 kts 320°
2026-05-01 15:10 41.66295 116.18960 32102 ft 428 kts 320°
2026-05-01 15:11 41.74023 116.12772 32103 ft 427 kts 320°
2026-05-01 15:12 41.79155 116.08653 32104 ft 427 kts 320°
2026-05-01 15:12 41.86600 116.02666 32107 ft 427 kts 320°
2026-05-01 15:14 41.97705 115.90372 32102 ft 409 kts 297°
2026-05-01 15:14 42.01781 115.80602 32102 ft 397 kts 294°
2026-05-01 15:15 42.07100 115.67473 32096 ft 399 kts 294°